Riverton, WY

5:13 AM MDT on October 01, 2016 (GMT -0600)
Riverton Regional

Weather History for KRIW - June, 2013

Change the Weather History Date:

Saturday, June 29, 2013

  Actual Average Record
Temperature  
Mean Temperature 78 °F 68 °F  
Max Temperature 92 °F 83 °F 98 °F (1990)
Min Temperature 63 °F 53 °F 47 °F (2014)
Degree Days  
Heating Degree Days 0 1  
Month to date heating degree days 52 118  
Since 1 June heating degree days 52 118  
Since 1 July heating degree days 7535 7869  
Cooling Degree Days 13 4  
Month to date cooling degree days 125 62  
Year to date cooling degree days 138 71  
Since 1 June cooling degree days 125 62  
Growing Degree Days 28 (Base 50)    
Moisture  
Dew Point 44 °F    
Average Humidity 32    
Maximum Humidity 48    
Minimum Humidity 15    
Precipitation  
Precipitation T in 0.04 in 0.39 in (1947)
Month to date precipitation 0.05 1.25  
Year to date precipitation 3.49 5.33  
Snow  
Snow 0.00 in - - ()
Month to date snowfall 0.0  
Since 1 June snowfall 0.0  
Since 1 July snowfall 38.2  
Snow Depth 0.00 in    
Sea Level Pressure  
Sea Level Pressure 30.06 in    
Wind  
Wind Speed 9 mph (ENE)    
Max Wind Speed 41 mph    
Max Gust Speed 51 mph    
Visibility 10 miles    
Events Rain , Thunderstorm    
T = Trace of Precipitation, MM = Missing Value Source: NWS Daily Summary

Daily Weather History Graph

Daily Weather History Graph

Search for Another Location

Airport or City:

Trip Planner

Search our weather history database for the weather conditions in past years. The results will help you decide how hot, cold, wet, or windy it might be!

Date:

Astronomy

Jun. 29, 2013 Rise Set
Actual Time 5:37 AM MDT 8:57 PM MDT
Civil Twilight 5:02 AM MDT 9:32 PM MDT
Nautical Twilight 4:16 AM MDT 10:18 PM MDT
Astronomical Twilight 3:19 AM MDT 11:14 PM MDT
Moon 12:16 AM MDT (6/29) 1:04 PM MDT (6/29)
Length of Visible Light 16h 30m
Length of Day
15h 19m
Waning Gibbous, 55% of the Moon is Illuminated
Jun 29
Waning Gibbous
Jun 29
Last Quarter
Jul 8
New
Jul 15
First Quarter
Jul 22
Full

Hourly Weather History & Observations

Time (MDT) Temp. Dew Point Humidity Pressure Visibility Wind Dir Wind Speed Gust Speed Precip Events Conditions
12:53 AM 73.9 °F 46.9 °F 38% 30.09 in 10.0 mi ENE 8.1 mph - N/A   Clear
1:53 AM 72.0 °F 46.0 °F 40% 30.08 in 10.0 mi East 9.2 mph - N/A   Clear
2:53 AM 69.1 °F 46.0 °F 44% 30.09 in 10.0 mi East 5.8 mph - N/A   Clear
3:53 AM 66.9 °F 46.0 °F 47% 30.08 in 10.0 mi ENE 4.6 mph - N/A   Clear
4:53 AM 66.9 °F 46.0 °F 47% 30.07 in 10.0 mi NE 4.6 mph - N/A   Clear
5:53 AM 64.9 °F 45.0 °F 48% 30.09 in 10.0 mi NNE 4.6 mph - N/A   Clear
6:53 AM 69.1 °F 46.0 °F 44% 30.08 in 10.0 mi NNE 4.6 mph - N/A   Clear
7:53 AM 72.0 °F 46.0 °F 40% 30.08 in 10.0 mi NE 5.8 mph - N/A   Clear
8:53 AM 73.9 °F 46.9 °F 38% 30.08 in 10.0 mi Calm Calm - N/A   Clear
9:53 AM 77.0 °F 48.0 °F 36% 30.08 in 10.0 mi ENE 5.8 mph - N/A   Clear
10:53 AM 80.1 °F 48.0 °F 32% 30.06 in 10.0 mi Variable 3.5 mph - N/A   Clear
11:53 AM 82.9 °F 46.0 °F 27% 30.04 in 10.0 mi ESE 4.6 mph - N/A   Clear
12:53 PM 86.0 °F 43.0 °F 22% 30.02 in 10.0 mi ESE 5.8 mph - N/A   Clear
1:53 PM 87.1 °F 44.1 °F 22% 29.99 in 10.0 mi ESE 8.1 mph - N/A   Clear
2:53 PM 91.0 °F 41.0 °F 17% 29.96 in 10.0 mi NE 16.1 mph 21.9 mph N/A   Clear
3:53 PM 90.0 °F 37.9 °F 16% 29.95 in 10.0 mi East 9.2 mph - N/A   Clear
4:53 PM 88.0 °F 34.0 °F 15% 29.96 in 10.0 mi NE 8.1 mph - N/A   Clear
5:37 PM 80.6 °F 44.6 °F 28% 30.23 in 10.0 mi West 36.8 mph 46.0 mph N/A Thunderstorm Mostly Cloudy
5:53 PM 75.0 °F 45.0 °F 34% 30.02 in 10.0 mi West 32.2 mph 43.7 mph 0.00 in Rain , Thunderstorm Light Rain
6:04 PM 71.6 °F 48.2 °F 43% 30.22 in 10.0 mi WNW 24.2 mph 36.8 mph 0.00 in Rain Light Rain
6:53 PM 79.0 °F 39.0 °F 24% 30.00 in 10.0 mi South 18.4 mph 36.8 mph 0.00 in Rain Light Rain
7:02 PM 80.6 °F 37.4 °F 21% 30.21 in 10.0 mi SSE 18.4 mph 32.2 mph 0.00 in Rain Light Rain
7:53 PM 79.0 °F 41.0 °F 26% 29.97 in 10.0 mi SSW 11.5 mph - 0.00 in   Clear
8:45 PM 73.4 °F 48.2 °F 41% 30.21 in 10.0 mi NW 15.0 mph - N/A   Clear
8:53 PM 73.0 °F 48.0 °F 41% 30.00 in 10.0 mi NW 18.4 mph - N/A   Clear
9:53 PM 73.9 °F 45.0 °F 35% 30.01 in 10.0 mi North 15.0 mph - N/A   Clear
10:53 PM 73.0 °F 45.0 °F 37% 30.05 in 10.0 mi Calm Calm - N/A   Clear
11:53 PM 70.0 °F 46.0 °F 42% 30.06 in 10.0 mi NNE 6.9 mph - N/A   Scattered Clouds